www.pogodaiklimat.ru

Погода и климат >> Архив погоды >> Россия >> Астраханская область >> Досанг


ПОГОДА в Досанге

  • Прогноз погоды в Досанге
  • Монитор погоды в Досанге

АРХИВ ПОГОДЫ в Досанге

Время (UTC), дата Ветер
(напр.,м/с)
 
Видим.   Явления Облачность Т
(С)
Тd
(С)
f
(%)
Тe
(С)
Тes
(С)
Комфортность P
(гПа)
Po
(гПа)
Тmin
(С)
Tmax
(С)
R
(мм)
R24
(мм)
S
(см)
18 19.05 З 2 20 км 3/0
[Ci fib]
+20.4 +9.3 49 +22 +22 комфорт 1011.8 1013.9
21 19.05 С 2 10 км ясно +16.1 +5.5 49 +16 +16 1012.2 1014.4
00 20.05 С 2 10 км 3/0
[Ci fib]
+12.9 +4.9 58 +12 +12 1012.7 1014.9
03 20.05 С 5 20 км 4/0
[Ci sp]
+14.7 +4.4 50 +13 +14 1014.3 1016.4 +11.9
06 20.05 С 6-10
{10}
20 км 6/0
[Cs]
+20.0 +1.7 30 +20 +24 1015.7 1017.8
09 20.05 С 5
{13}
20 км 3/0
[Cs]
+21.8 -1.4 21 +21 +30 комфорт 1016.9 1019.0
12 20.05 С 4
{11}
20 км 3/0
[Ci fib]
+21.8 -5.1 16 +21 +27 комфорт 1017.2 1019.3
15 20.05 С 5 20 км 3/0
[Ci fib]
+20.1 -5.7 17 +20 +20 1017.6 1019.8 +22.3
18 20.05 С 3 10 км 3/0
[Ci fib]
+13.4 -3.0 32 +13 +13 1019.6 1021.8
21 20.05 С 3 10 км 1/0
[Ci fib]
+9.2 -0.5 51 +7 +7 1020.1 1022.3
00 21.05 СВ 2 10 км 8/0
[Ci fib]
+7.0 -0.3 60 +5 +5 1020.7 1023.0
03 21.05 штиль 0 20 км 3/0
[Ci fib]
+12.8 +0.2 42 +13 +15 1022.4 1024.6 +5.9
06 21.05 С 3 20 км ясно +18.2 -4.5 21 +18 +28 1023.1 1025.3
09 21.05 СВ 2 20 км ясно +20.3 -4.4 19 +21 +39 комфорт 1023.2 1025.3
12 21.05 С 3 20 км 1/0
[Ci fib]
+22.2 -5.9 15 +21 +29 комфорт 1022.2 1024.3
15 21.05 С 4 20 км 8/0
[Ci fib]
+21.0 -5.9 16 +21 +21 комфорт 1021.9 1024.0 +22.4
18 21.05 СВ 2 10 км ясно +13.9 -3.5 30 +14 +14 1022.7 1024.9
21 21.05 ЮВ 3 10 км ясно +10.8 -1.5 42 +9 +9 1022.9 1025.1
00 22.05 В 1 10 км 3/0
[Ci fib]
+7.0 +1.1 66 +6 +6 1022.2 1024.4
03 22.05 штиль 0 20 км 9/0
[Cs]
+14.3 +7.4 63 +14 +16 1022.2 1024.4 +5.6
06 22.05 ЮВ 4 20 км 9/0
[Cs]
+20.5 -0.8 24 +21 +27 комфорт 1021.6 1023.7
09 22.05 Ю 5
{11}
20 км 10/1 600 м
[Cu hum Cs]
+21.8 +3.6 30 +22 +29 комфорт 1020.1 1022.2
12 22.05 ЮВ 6
{10}
20 км 10/0
[Cs]
+20.9 +4.6 34 +21 +25 комфорт 1018.6 1020.7
15 22.05 ЮВ 5
{10}
20 км 10/0
[Cs]
+19.8 +2.8 32 +20 +20 1018.3 1020.4 +22.6
18 22.05 ЮВ 2 10 км 10/0
[Cs]
+12.4 +5.1 61 +12 +12 1018.3 1020.5
21 22.05 ЮВ 2 10 км 10/0
[Cc]
+10.5 +5.9 73 +9 +9 1016.9 1019.1
00 23.05 В 2 10 км 5/0
[Cc]
+9.2 +6.5 83 +8 +8 1015.5 1017.7
03 23.05 В 3 20 км 10/0
[Ac cast Cc]
+16.5 +9.0 61 +16 +17 1014.0 1016.2 +9.0
06 23.05 ЮЗ 2 20 км 10/3 600 м
[Sc diur, vesp Cs]
+20.9 +11.2 54 +24 +30 комфорт 1013.1 1015.2
09 23.05 штиль 0 20 км 9/8 600 м
[Sc diur, vesp Ac cast]
+22.9 +0.4 23 +22 +25 комфорт 1011.7 1013.8
12 23.05 Ю 3 20 км 9/9 600 м
[Sc diur, vesp]
+21.9 +6.5 37 +23 +24 комфорт 1010.5 1012.6
15 23.05 ЮЗ 1 20 км 8/6 600 м
[Cb cap Ac cuf Ci sp]
+18.6 +11.8 65 +20 +21 1009.6 1011.7 +24.4
18 23.05 Ю 2 10 км 4/0
[Ac trans]
+17.4 +11.5 68 +18 +18 1010.1 1012.2
21 23.05 ЮЗ 2 10 км ясно +16.0 +12.5 80 +16 +16 1009.0 1011.1
00 24.05 З 3 10 км ясно +16.4 +11.5 73 +16 +16 1008.6 1010.7
03 24.05 ЮЗ 2 20 км 9/6 600 м
[Sc Ac cast]
+16.5 +12.2 76 +17 +17 1008.7 1010.9 +15.5
06 24.05 З 2 20 км 10/8 600 м
[Cu med, cong Ci fib]
+20.4 +12.5 60 +23 +25 комфорт 1008.7 1010.8
09 24.05 СЗ 4 20 км 6/6 600 м
[Cu med, cong]
+24.5 +9.4 38 +25 +30 комфорт 1008.2 1010.3
12 24.05 З 4 20 км 3/3 600 м
[Cu med, cong]
+26.2 +8.6 33 +26 +32 жарко 1008.0 1010.1
15 24.05 З 3 20 км 3/3 600 м
[Sc diur, vesp Ac trans]
+25.5 +9.8 37 +26 +27 жарко 1008.5 1010.6 +26.9
18 24.05 ЮЗ 1 10 км ясно +19.7 +14.1 70 +23 +23 комфорт 1009.6 1011.7
21 24.05 ЮЗ 2 10 км ясно +18.1 +12.5 70 +19 +19 1010.6 1012.7
00 25.05 З 1 10 км ясно +15.6 +11.9 79 +16 +16 1010.9 1013.1
03 25.05 С 2 20 км 10/0
[Cs]
+18.1 +10.7 62 +19 +20 1012.2 1014.3 +14.9
06 25.05 СВ 3 20 км 10/0
[Ci sp]
+24.7 +10.9 42 +26 +34 жарко 1012.7 1014.7
09 25.05 ЮВ 3 20 км 10/6 600 м
[Cu med, cong Ci fib]
+28.6 +9.2 30 +29 +33 жарко 1012.2 1014.3
12 25.05 Ю 4 20 км 6/4 600 м
[Cb cap Ci fib]
+29.7 +8.8 27 +29 +33 жарко 1010.7 1012.7
15 25.05 ЮВ 6
{10}
20 км 3/0
[Ci fib]
+26.1 +9.3 35 +27 +27 жарко 1010.8 1012.9 +30.3
18 25.05 ЮВ 1 10 км 8/0
[Ac trans Ci fib]
+19.4 +11.2 59 +22 +22 комфорт 1012.4 1014.6
21 25.05 ЮВ 2 10 км 10/0
[Cs]
+17.6 +11.8 69 +18 +18 1012.4 1014.5
00 26.05 ЮВ 2 10 км 10/10 600 м
[Cb cap]
+17.8 +13.7 77 +18 +18 1011.4 1013.5
03 26.05 ЮВ 3 20 км {ливн. осадки} 10/6 600 м
[Cb cap Ac cuf]
+18.6 +15.4 82 +20 +20 1012.3 1014.4 +16.6 0.3
06 26.05 Ю 3 20 км {ливн. осадки} 8/3 600 м
[Cu med, cong Ac cast Ci sp]
+24.2 +12.8 49 +26 +31 жарко 1012.8 1014.9
09 26.05 ЮЗ 2 20 км 9/5 600 м
[Cb cap Ac cast Ci sp]
+26.3 +12.1 41 +28 +33 жарко 1012.7 1014.8
12 26.05 З 2 20 км 8/5 600 м
[Cb cap Cc]
+26.7 +9.3 33 +27 +32 жарко 1012.1 1014.2
15 26.05 З 1 20 км 8/6 600 м
[Cb cap Ac cuf]
+24.0 +11.9 47 +26 +26 жарко 1012.1 1014.2 +28.2

 

Местоположение метеостанции Досанг (Астраханская область, Россия): широта 46.92 долгота 47.93 высота над уровнем моря -19 м.

В архиве по умолчанию представлена погода в Досанге за последнюю неделю. Архивные данные за месяц целиком и за предыдущие месяцы, начиная с января 2011 года, Вы можете получить, выбрав интересующий диапазон дат из раскрывающегося списка и нажав кнопку "Ввод!".


*Определитесь, кто Вы:
робот инопланетянин человек

Внимание! Время в таблицах - всемирное. Для получения местного времени необходимо прибавить поправку, которая равна 4 ч.

Смотрите также архив погоды в соседних городах и на ближайших метеорологических станциях:

Погода в Астрахани (Астраханская область, Россия) (71 км)
Погода в Харабали (Астраханская область, Россия) (74 км)
Погода в Зеленге (Астраханская область, Россия) (98 км)
Погода в Ганюшкино (Атырауская область, Казахстан) (108 км)
Погода в Юсте (Калмыкия, Россия) (124 км)
Погода в Жанауштогане (Атырауская область, Казахстан) (127 км)
Погода в Лимане (Астраханская область, Россия) (136 км)
Погода в Утте (Калмыкия, Россия) (158 км)
Погода в Исатай (Атырауская область, Казахстан) (163 км)
Погода в Верхнем Баскунчаке (Астраханская область, Россия) (170 км)

Пояснения к столбцам:

Ветер - указаны скорость ветра в м/с - средняя за 10 мин, порывы в срок и между сроками (в фигурных скобках) и направление, откуда дует ветер: С - северный, СВ - северо-восточный, В - восточный, ЮВ - юго-восточный, Ю - южный, ЮЗ - юго-западный, З - западный, СЗ - северо-западный.
Видимость - горизонтальная дальность видимости в метрах или километрах. При видимости от 1 до 10 км при отсутствии осадков обычно наблюдается дымка, при ухудшении видимости до 1 км и менее - туман. В сухую погоду видимость может ухудшаться дымом, пылью или мглою.
Явления - указаны атмосферные явления, наблюдавшиеся в срок или в последний час перед сроком; фигурными скобками обозначены явления, наблюдавшиеся между сроками (за 1-3 часа до срока); квадратными скобками обозначены град или гололедные отложения с указанием их диаметра в мм.
Облачность - указаны через наклонную черту общая и нижняя облачность в баллах и высота нижней границы облаков в метрах; квадратными скобками обозначены формы облаков: Ci - перистые, Cs - перисто-слоистые, Cc - перисто-кучевые, Ac - высококучевые, As - высокослоистые, Sc - слоисто-кучевые, Ns - слоисто-дождевые, Cu - кучевые, Cb - кучево-дождевые. Подробнее классификацию облаков см. в Атласе облаков (PDF).
T - Температура воздуха - температура, измеренная на высоте 2 м над землей.
Td - Температура точки росы - температура, при понижении до которой содержащийся в воздухе водяной пар достигнет насыщения.
f - Относительная влажность воздуха - влажноcть воздуха, измеренная на высоте 2 м над землей.
Te - Эффективная температура - температура, которую ощущает одетый по сезону человек в тени. Характеристика душности погоды. При расчете учитывается влияние влажности воздуха и скорости ветра на теплоощущения человека.
Tes - Эффективная температура на солнце - температура, которую ощущает человек, с поправкой на солнечный нагрев. Характеристика знойности погоды. Зависит от высоты солнца над горизонтом, облачности и скорости ветра. Ночью, в пасмурную погоду, а также при ветре 12 м/с и более поправка равна нулю.
P - Атмосферное давление - приведенное к уровню моря атмосферное давление.
Po - Атмосферное давление - измеренное на уровне метеостанции атмосферное давление.
Tmin - Минимальная температура - минимум температуры воздуха на высоте 2 м над землей.
Tmax - Максимальная температура - максимум температуры воздуха на высоте 2 м над землей.
R - Количество осадков - Количество выпавших осадков за период времени, мм. При наведении курсора мыши на число - период времени, за который выпало указанное количество осадков.
R24 - Количество осадков - Количество выпавших осадков за 24 часа, мм.
S - Снежный покров - Высота снежного покрова, см. При наведении курсора мыши на число - состояние снежного покрова и степень покрытия местности в баллах.